SCP
0 0 0 0 0 0 0 0 0 0 0 0 0 0 0 0 0 0 0 0 0 0 0 0 0 0 0 0 0 0 0 0 0 0 0 0 0 0 0 0 0 0 0 0
0 0 0 0 0 0 0 0 0 0 0 0 0 0 0 0 0 0 0 0 0 0 0 0 0 0 0 0 0 0 0 0 0 0 0 0 0 0 0 0 0 0 0 0
0 0 0 0 0 0 0 0 0 0 0 0 0 0 0 0 0 0 0 0 0 0 0 0 0 0 0 0 0 0 0 0 0 0 0 0 0 0 0 0 0 0 0 0
0 0 0 0 0 0 0 0 0 0 0 0 0 0 0 0 0 0 0 0 0 0 0 0 0 0 0 0 0 0 0 0 0 0 0 0 0 0 0 0 0 0 0 0
0 0 0 0 0 0 0 0 0 0 0 0 0 0 0 0 0 0 0 0 0 0 0 0 0 0 0 0 0 0 0 0 0 0 0 0 0 0 0 0 0 0 0 0
0 0 0 0 0 0 0 0 0 0 0 0 0 0 0 0 0 0 0 0 0 0 0 0 0 0 0 0 0 0 0 0 0 0 0 0 0 0 0 0 0 0 0 0
0 0 0 0 0 0 0 0 0 0 0 0 0 0 0 0 0 0 0 0 0 0 0 0 0 0 0 0 0 0 0 0 0 0 0 0 0 0 0 0 0 0 0 0
0 0 0 -0 0 0 0 0 0 0 0 0 0 0 0 0 0 0 0 0 0 0 0 0 0 0 0 0 0 0 0 0 0 0 0 0 0 0 0 0 0 0 0 0
0 0 -0 -0 0 0 0 0 0 0 0 0 0 0 0 0 0 0 0 0 0 0 0 0 0 0 0 0 0 0 0 0 0 0 0 0 0 0 0 0 0 0 0 0
0 -0 0 0 0 0 0 0 0 0 0 0 0 0 0 0 0 0 0 0 0 0 0 0 0 0 0 0 0 0 0 0 0 0 0 0 0 0 0 0 0 0 0 0
-0 -0 -0 -0 -0 -0 -0 -0 0 0 0 0 0 0 0 0 0 0 0 0 0 0 0 0 0 0 0 0 0 0 0 0 0 0 0 0 0 0 0 0 0 0 0 0
-0 -0 -0 -0 -0 -0 -0 -0 0 0 0 0 0 0 0 0 0 0 0 0 0 0 0 0 0 0 0 0 0 0 0 0 0 0 0 0 0 0 0 0 0 0 0 0
-0 -0 -0 -0 -0 -0 -0 0 0 0 -0 0 0 0 0 0 0 0 0 0 0 0 0 0 0 0 0 0 0 0 0 0 0 0 0 0 0 0 0 0 0 0 0 0
-0 -0 -0 -0 -0 0 0 0 0 0 0 0 0 0 0 0 0 0 0 0 0 0 0 0 0 0 0 0 0 0 0 0 0 0 0 0 0 0 0 0 0 0 0 0
0 -0 0 0 0 0 0 0 0 0 0 0 0 0 0 0 0 0 0 0 0 0 0 0 0 0 0 0 0 0 0 0 0 0 0 0 0 0 0 0 0 0 0 0
0 0 0 0 0 0 0 0 0 0 -0 0 0 0 0 0 0 0 0 0 0 0 0 0 0 0 0 0 0 0 0 0 0 0 0 0 0 0 0 0 0 0 0 0
0 0 0 -0 0 0 0 0 -0 -0 0 0 0 0 0 0 0 0 0 0 0 0 0 0 0 0 0 0 0 0 0 0 0 0 0 0 0 0 0 0 0 0 0 0
0 0 0 0 0 0 0 0 0 0 0 0 0 0 0 0 0 0 0 0 0 0 0 0 0 0 0 0 0 0 0 0 0 0 0 0 0 0 0 0 0 0 0 0
0 0 0 0 -0 0 0 0 0 0 0 0 0 0 0 0 0 0 0 0 0 0 0 0 0 0 0 0 0 0 0 0 0 0 0 0 0 0 0 0 0 0 0 0
0 0 0 0 -0 0 0 0 0 0 0 0 0 0 0 0 0 0 -0 0 0 0 0 0 0 0 0 0 0 0 0 0 0 0 0 0 0 0 0 0 0 0 0 0
0 0 -0 -0 0 0 0 0 0 0 0 0 0 0 0 0 0 0 0 0 0 0 0 0 0 0 0 0 0 0 0 0 0 0 0 0 0 0 0 0 0 0 0 0
0 0 -0 0 0 0 0 0 0 0 -0 0 0 0 0 0 0 0 0 0 0 0 0 0 0 0 0 0 0 0 0 0 0 0 0 0 0 0 0 0 0 0 0 0
0 0 0 0 0 -0 0 0 0 0 -0 0 0 0 0 0 0 0 0 0 0 0 0 0 0 0 0 0 0 0 0 0 0 0 0 0 0 0 0 0 0 0 0 0
0 0 0 0 0 0 -0 0 0 0 0 0 0 0 0 0 0 0 0 0 0 0 0 0 0 0 0 0 0 0 0 0 0 0 0 0 0 0 0 0 0 0 0 0
0 0 0 0 0 0 0 0 0 0 0 0 0 0 0 0 0 0 0 0 0 0 0 0 0 0 0 0 0 0 0 0 0 0 0 0 0 0 0 0 0 0 0 0
0 0 0 -0 0 0 -0 0 0 0 0 0 0 0 0 0 0 0 0 0 0 0 0 0 0 0 0 0 0 0 0 0 0 0 0 0 0 0 0 0 0 0 0 0
0 0 -0 -0 0 0 0 0 0 0 0 0 0 0 0 0 0 0 0 0 0 0 0 0 0 0 0 0 0 0 0 0 0 0 0 0 0 0 0 0 0 0 0 0
Wind_Speed_500mb
34 42 32 28 34 31 24 28 39 21 27 36 34 30 33 30 24 19 15 9 8 6 6 7 10 12 13 15 18 21 22 23 26 28 32 40 54 40 45 44 38 46 53 64
33 37 21 21 30 29 25 31 6 27 32 33 42 39 34 26 20 18 13 10 7 6 6 8 10 11 13 15 16 17 20 22 25 27 29 40 52 55 48 47 38 49 54 67
28 26 19 18 13 11 17 26 23 23 33 41 32 33 29 25 17 15 12 9 6 6 6 7 9 10 13 15 17 19 20 22 24 27 30 33 44 50 58 48 41 49 57 62
19 19 23 8 16 23 29 21 28 35 32 31 35 30 29 17 21 14 8 8 7 5 6 6 7 10 12 14 17 18 20 23 25 28 30 32 37 46 54 56 42 49 57 61
19 21 11 6 4 10 8 18 21 27 31 38 38 34 22 16 15 14 10 8 7 6 7 6 7 9 11 13 16 19 22 25 27 29 31 33 39 56 40 59 46 48 56 62
25 16 7 8 20 31 26 14 24 27 25 25 30 16 20 19 15 14 11 9 8 8 6 5 7 10 12 15 18 21 23 25 28 31 33 33 37 52 56 46 53 47 67 61
17 8 12 23 42 32 14 8 22 24 20 14 14 21 25 19 15 13 10 10 9 9 7 6 7 10 13 16 21 24 25 26 30 31 30 35 37 42 45 45 49 56 77 74
5 6 3 17 15 11 6 23 21 19 19 23 22 20 17 15 13 13 12 10 9 8 6 5 7 9 12 17 22 24 27 29 33 32 32 39 42 43 38 46 46 57 73 76
8 3 2 10 18 15 12 15 17 18 14 16 16 14 14 13 11 10 8 7 5 3 0 2 5 8 13 17 22 25 28 30 36 34 38 36 42 39 41 43 45 58 66 67
7 9 14 12 11 12 14 15 13 13 10 9 12 9 9 9 10 11 10 9 8 9 11 9 9 12 16 18 24 26 27 31 32 39 37 38 37 41 43 44 46 56 57 56
21 20 17 15 14 14 14 12 12 9 10 11 8 9 5 7 11 13 14 14 14 15 14 16 15 21 27 32 31 30 29 28 32 36 37 38 36 44 43 45 44 56 55 49
7 10 16 18 13 14 14 13 10 11 9 8 2 1 5 8 8 11 15 16 17 18 19 18 25 25 25 30 27 31 32 28 31 35 43 40 38 48 41 49 53 52 52 49
17 17 19 17 15 11 9 5 4 5 3 2 1 4 5 8 10 9 11 18 20 20 24 28 31 32 35 36 33 34 33 36 30 34 39 45 45 45 46 48 48 49 56 55
17 16 14 10 5 4 2 3 4 6 8 9 5 10 9 11 13 20 22 23 26 28 31 35 41 41 39 39 36 36 36 32 31 35 33 42 45 48 46 49 49 52 49 55
8 4 3 3 6 7 9 12 15 15 12 11 12 14 14 17 18 25 25 29 31 35 40 40 46 52 52 40 43 38 37 34 26 32 37 35 43 49 47 48 51 51 46 46
1 5 4 10 11 14 7 15 24 19 29 17 16 24 20 23 28 30 30 34 34 40 46 54 55 52 50 46 53 46 40 33 29 34 29 33 39 43 48 46 50 48 48 47
7 13 24 33 26 16 12 18 14 22 15 15 12 19 23 29 34 31 24 30 28 36 34 35 38 41 47 40 56 57 32 27 33 25 23 26 32 44 47 46 45 48 49 47
8 10 14 14 26 5 2 1 9 9 9 10 13 13 18 22 25 30 24 36 23 28 28 32 38 33 32 35 32 26 30 27 26 30 13 22 35 40 40 41 43 46 47 45
10 8 6 10 8 2 1 3 9 5 4 10 17 21 28 32 36 45 35 35 29 27 21 25 31 31 30 32 24 20 23 23 31 11 15 26 32 34 39 39 42 43 42 43
9 13 10 13 10 2 0 7 10 10 13 16 17 29 22 27 38 29 24 26 21 17 21 26 33 25 26 23 16 16 12 7 6 13 19 23 26 32 36 37 40 40 40 41
4 4 7 12 4 6 6 12 15 16 13 13 14 20 19 22 27 32 20 19 22 22 30 29 29 17 19 17 13 5 5 10 13 16 17 21 27 31 35 35 40 39 40 40
7 7 10 10 10 10 14 14 19 34 28 12 17 20 19 22 24 25 19 24 25 31 34 23 17 22 16 6 1 2 5 8 13 16 17 22 24 35 33 33 39 38 38 39
8 8 10 12 14 20 15 10 25 33 8 5 6 22 9 14 16 18 22 17 17 33 21 15 17 16 18 12 5 10 7 10 12 15 21 26 26 31 35 36 36 38 39 42
10 9 13 14 22 35 22 18 24 29 9 15 4 6 5 13 19 16 22 26 24 23 17 18 23 23 20 14 2 7 11 9 12 13 16 21 28 32 41 40 36 37 43 41
14 10 19 17 21 14 15 21 20 16 13 17 7 9 3 15 8 13 12 15 15 12 15 18 20 18 20 17 8 13 13 14 16 21 14 20 23 30 36 44 38 36 41 46
10 16 21 18 17 13 12 16 21 31 12 16 7 14 18 14 8 18 6 10 15 18 11 18 22 16 16 18 20 18 17 16 16 18 21 24 26 34 36 40 38 38 40 49
24 15 20 17 38 9 11 22 23 19 31 10 22 23 16 12 16 10 13 12 9 14 21 25 20 17 16 17 11 22 18 15 22 25 26 35 28 30 37 37 39 41 45 55
Wind_Direction_500mb
282 291 296 294 291 299 263 275 297 104 140 160 159 154 146 145 143 142 141 124 99 79 58 42 35 28 14 9 4 1 2 358 355 351 353 329 332 346 334 345 355 353 342 333
287 291 238 265 257 284 271 276 161 130 131 145 148 143 134 140 151 142 139 136 111 87 69 60 35 23 16 10 2 1 0 357 351 350 349 335 332 341 344 354 4 356 340 334
287 296 309 263 303 303 12 35 336 163 133 125 120 134 142 139 152 139 138 127 107 84 74 60 35 21 19 11 3 5 360 356 351 348 346 344 334 335 345 355 4 352 340 337
264 274 255 61 48 66 79 59 78 93 118 134 133 126 118 105 135 129 132 129 119 100 108 68 45 24 19 11 6 1 356 355 351 346 342 342 328 334 344 353 0 348 339 334
263 264 223 113 113 145 171 82 88 102 107 110 114 108 99 107 110 120 132 119 116 119 113 85 50 26 20 10 3 0 356 353 349 342 338 340 330 336 351 342 355 345 335 335
298 256 262 41 9 359 123 114 122 119 118 131 152 193 126 134 133 129 125 118 117 117 111 81 47 33 23 15 5 0 354 348 343 340 336 339 329 334 344 349 348 335 340 343
334 316 61 344 335 316 240 129 106 116 123 137 98 106 131 135 129 131 131 135 123 116 104 77 51 35 21 10 5 357 350 346 341 337 351 335 340 339 333 339 334 328 345 348
1 63 99 332 3 33 88 92 108 110 101 95 110 124 140 137 136 140 133 120 122 115 97 68 33 18 6 359 352 352 348 345 343 336 349 339 340 341 331 332 332 333 341 346
69 126 186 67 95 114 99 108 104 107 114 119 133 140 154 145 159 159 158 155 150 136 24 295 356 339 343 341 343 344 343 344 340 342 340 343 340 340 335 334 332 333 337 340
123 112 108 104 100 95 104 104 100 110 115 107 116 133 161 171 197 205 216 229 242 261 268 290 277 310 317 324 327 339 338 339 337 345 341 338 338 337 333 333 329 333 334 335
112 132 120 103 100 97 105 105 109 116 102 94 106 154 200 216 206 219 235 245 253 264 279 281 281 294 297 306 312 308 328 330 333 336 338 337 334 337 335 335 337 337 328 335
72 105 124 120 129 134 140 142 125 99 89 84 141 165 201 242 234 243 240 247 254 263 269 277 289 289 288 302 288 300 310 314 317 324 332 332 333 334 333 333 329 343 332 337
83 86 103 130 142 150 111 92 76 78 19 125 197 306 281 276 278 255 265 271 273 285 284 285 283 283 287 292 284 297 291 305 308 313 327 324 327 330 331 336 339 346 342 341
98 112 126 136 128 162 186 235 232 246 245 263 242 268 281 293 294 283 286 290 288 284 285 283 285 282 281 282 278 279 286 295 289 305 313 323 321 326 330 338 336 341 340 336
103 66 135 174 214 251 263 281 273 258 270 271 271 273 271 271 284 276 279 276 279 280 284 287 285 281 285 285 275 280 281 271 277 295 304 313 323 327 334 336 334 333 338 344
224 20 341 294 273 273 289 316 338 290 297 285 287 276 279 275 286 284 283 284 286 283 292 295 297 294 284 279 277 277 281 273 272 275 301 313 325 327 333 330 330 334 340 342
331 332 337 336 328 322 313 326 257 273 295 278 301 293 282 274 280 286 294 299 300 296 303 309 308 304 298 306 283 292 283 266 279 272 307 315 323 328 328 327 334 339 340 338
310 312 299 298 266 331 12 212 288 282 296 293 314 314 314 301 302 307 295 312 310 301 313 325 324 329 320 312 299 287 302 280 258 278 314 320 330 330 329 335 337 334 335 336
291 283 278 280 284 330 25 313 299 301 345 292 300 309 302 308 305 310 305 322 308 316 320 324 333 330 318 317 319 294 296 288 307 333 332 335 332 332 335 338 338 335 336 337
263 251 229 282 274 267 206 305 303 290 295 304 296 328 304 297 337 337 328 327 324 335 348 336 324 330 332 332 342 325 336 334 19 355 329 331 334 338 334 335 336 336 338 337
296 267 270 310 315 265 321 304 280 304 293 310 326 337 352 356 349 338 332 355 359 359 352 343 336 343 330 316 335 50 50 46 6 341 343 340 337 337 332 337 338 337 337 336
215 259 287 292 300 298 301 312 334 329 297 329 350 333 347 354 346 343 1 354 353 351 345 331 336 334 341 352 186 296 67 12 349 347 342 338 341 337 336 335 341 337 334 334
228 234 265 286 296 295 305 328 314 324 309 342 340 309 324 5 354 358 344 333 344 340 358 344 350 358 358 347 45 55 348 335 343 344 334 343 334 338 337 334 337 335 332 332
240 272 293 286 306 294 300 296 299 306 233 318 54 256 303 344 356 352 349 338 351 359 359 358 358 359 348 351 83 329 317 305 317 322 327 336 328 329 340 338 333 333 334 337
253 279 289 300 290 270 273 273 305 300 273 276 259 315 255 309 353 325 335 346 333 2 336 311 328 338 353 344 333 323 316 314 309 309 306 319 317 323 327 337 338 335 333 330
304 288 307 270 274 285 312 331 339 333 344 321 117 15 324 306 337 332 3 327 352 356 332 317 319 325 330 329 327 318 325 321 317 308 314 314 309 320 327 336 337 334 329 325
290 289 188 279 282 252 336 326 325 324 320 328 330 321 336 326 320 300 320 312 337 356 351 344 340 332 334 323 328 324 325 324 322 320 314 316 311 321 326 329 334 335 326 318
Wind_Speed_850mb
34 42 32 28 34 31 24 28 39 21 27 36 34 30 33 30 24 19 15 9 8 6 6 7 10 12 13 15 18 21 22 23 26 28 32 40 54 40 45 44 38 46 53 64
33 37 21 21 30 29 25 31 6 27 32 33 42 39 34 26 20 18 13 10 7 6 6 8 10 11 13 15 16 17 20 22 25 27 29 40 52 55 48 47 38 49 54 67
28 26 19 18 13 11 17 26 23 23 33 41 32 33 29 25 17 15 12 9 6 6 6 7 9 10 13 15 17 19 20 22 24 27 30 33 44 50 58 48 41 49 57 62
19 19 23 8 16 23 29 21 28 35 32 31 35 30 29 17 21 14 8 8 7 5 6 6 7 10 12 14 17 18 20 23 25 28 30 32 37 46 54 56 42 49 57 61
19 21 11 6 4 10 8 18 21 27 31 38 38 34 22 16 15 14 10 8 7 6 7 6 7 9 11 13 16 19 22 25 27 29 31 33 39 56 40 59 46 48 56 62
25 16 7 8 20 31 26 14 24 27 25 25 30 16 20 19 15 14 11 9 8 8 6 5 7 10 12 15 18 21 23 25 28 31 33 33 37 52 56 46 53 47 67 61
17 8 12 23 42 32 14 8 22 24 20 14 14 21 25 19 15 13 10 10 9 9 7 6 7 10 13 16 21 24 25 26 30 31 30 35 37 42 45 45 49 56 77 74
5 6 3 17 15 11 6 23 21 19 19 23 22 20 17 15 13 13 12 10 9 8 6 5 7 9 12 17 22 24 27 29 33 32 32 39 42 43 38 46 46 57 73 76
8 3 2 10 18 15 12 15 17 18 14 16 16 14 14 13 11 10 8 7 5 3 0 2 5 8 13 17 22 25 28 30 36 34 38 36 42 39 41 43 45 58 66 67
7 9 14 12 11 12 14 15 13 13 10 9 12 9 9 9 10 11 10 9 8 9 11 9 9 12 16 18 24 26 27 31 32 39 37 38 37 41 43 44 46 56 57 56
21 20 17 15 14 14 14 12 12 9 10 11 8 9 5 7 11 13 14 14 14 15 14 16 15 21 27 32 31 30 29 28 32 36 37 38 36 44 43 45 44 56 55 49
7 10 16 18 13 14 14 13 10 11 9 8 2 1 5 8 8 11 15 16 17 18 19 18 25 25 25 30 27 31 32 28 31 35 43 40 38 48 41 49 53 52 52 49
17 17 19 17 15 11 9 5 4 5 3 2 1 4 5 8 10 9 11 18 20 20 24 28 31 32 35 36 33 34 33 36 30 34 39 45 45 45 46 48 48 49 56 55
17 16 14 10 5 4 2 3 4 6 8 9 5 10 9 11 13 20 22 23 26 28 31 35 41 41 39 39 36 36 36 32 31 35 33 42 45 48 46 49 49 52 49 55
8 4 3 3 6 7 9 12 15 15 12 11 12 14 14 17 18 25 25 29 31 35 40 40 46 52 52 40 43 38 37 34 26 32 37 35 43 49 47 48 51 51 46 46
1 5 4 10 11 14 7 15 24 19 29 17 16 24 20 23 28 30 30 34 34 40 46 54 55 52 50 46 53 46 40 33 29 34 29 33 39 43 48 46 50 48 48 47
7 13 24 33 26 16 12 18 14 22 15 15 12 19 23 29 34 31 24 30 28 36 34 35 38 41 47 40 56 57 32 27 33 25 23 26 32 44 47 46 45 48 49 47
8 10 14 14 26 5 2 1 9 9 9 10 13 13 18 22 25 30 24 36 23 28 28 32 38 33 32 35 32 26 30 27 26 30 13 22 35 40 40 41 43 46 47 45
10 8 6 10 8 2 1 3 9 5 4 10 17 21 28 32 36 45 35 35 29 27 21 25 31 31 30 32 24 20 23 23 31 11 15 26 32 34 39 39 42 43 42 43
9 13 10 13 10 2 0 7 10 10 13 16 17 29 22 27 38 29 24 26 21 17 21 26 33 25 26 23 16 16 12 7 6 13 19 23 26 32 36 37 40 40 40 41
4 4 7 12 4 6 6 12 15 16 13 13 14 20 19 22 27 32 20 19 22 22 30 29 29 17 19 17 13 5 5 10 13 16 17 21 27 31 35 35 40 39 40 40
7 7 10 10 10 10 14 14 19 34 28 12 17 20 19 22 24 25 19 24 25 31 34 23 17 22 16 6 1 2 5 8 13 16 17 22 24 35 33 33 39 38 38 39
8 8 10 12 14 20 15 10 25 33 8 5 6 22 9 14 16 18 22 17 17 33 21 15 17 16 18 12 5 10 7 10 12 15 21 26 26 31 35 36 36 38 39 42
10 9 13 14 22 35 22 18 24 29 9 15 4 6 5 13 19 16 22 26 24 23 17 18 23 23 20 14 2 7 11 9 12 13 16 21 28 32 41 40 36 37 43 41
14 10 19 17 21 14 15 21 20 16 13 17 7 9 3 15 8 13 12 15 15 12 15 18 20 18 20 17 8 13 13 14 16 21 14 20 23 30 36 44 38 36 41 46
10 16 21 18 17 13 12 16 21 31 12 16 7 14 18 14 8 18 6 10 15 18 11 18 22 16 16 18 20 18 17 16 16 18 21 24 26 34 36 40 38 38 40 49
24 15 20 17 38 9 11 22 23 19 31 10 22 23 16 12 16 10 13 12 9 14 21 25 20 17 16 17 11 22 18 15 22 25 26 35 28 30 37 37 39 41 45 55
Wind_Direction_850mb
282 291 296 294 291 299 263 275 297 104 140 160 159 154 146 145 143 142 141 124 99 79 58 42 35 28 14 9 4 1 2 358 355 351 353 329 332 346 334 345 355 353 342 333
287 291 238 265 257 284 271 276 161 130 131 145 148 143 134 140 151 142 139 136 111 87 69 60 35 23 16 10 2 1 0 357 351 350 349 335 332 341 344 354 4 356 340 334
287 296 309 263 303 303 12 35 336 163 133 125 120 134 142 139 152 139 138 127 107 84 74 60 35 21 19 11 3 5 360 356 351 348 346 344 334 335 345 355 4 352 340 337
264 274 255 61 48 66 79 59 78 93 118 134 133 126 118 105 135 129 132 129 119 100 108 68 45 24 19 11 6 1 356 355 351 346 342 342 328 334 344 353 0 348 339 334
263 264 223 113 113 145 171 82 88 102 107 110 114 108 99 107 110 120 132 119 116 119 113 85 50 26 20 10 3 0 356 353 349 342 338 340 330 336 351 342 355 345 335 335
298 256 262 41 9 359 123 114 122 119 118 131 152 193 126 134 133 129 125 118 117 117 111 81 47 33 23 15 5 0 354 348 343 340 336 339 329 334 344 349 348 335 340 343
334 316 61 344 335 316 240 129 106 116 123 137 98 106 131 135 129 131 131 135 123 116 104 77 51 35 21 10 5 357 350 346 341 337 351 335 340 339 333 339 334 328 345 348
1 63 99 332 3 33 88 92 108 110 101 95 110 124 140 137 136 140 133 120 122 115 97 68 33 18 6 359 352 352 348 345 343 336 349 339 340 341 331 332 332 333 341 346
69 126 186 67 95 114 99 108 104 107 114 119 133 140 154 145 159 159 158 155 150 136 24 295 356 339 343 341 343 344 343 344 340 342 340 343 340 340 335 334 332 333 337 340
123 112 108 104 100 95 104 104 100 110 115 107 116 133 161 171 197 205 216 229 242 261 268 290 277 310 317 324 327 339 338 339 337 345 341 338 338 337 333 333 329 333 334 335
112 132 120 103 100 97 105 105 109 116 102 94 106 154 200 216 206 219 235 245 253 264 279 281 281 294 297 306 312 308 328 330 333 336 338 337 334 337 335 335 337 337 328 335
72 105 124 120 129 134 140 142 125 99 89 84 141 165 201 242 234 243 240 247 254 263 269 277 289 289 288 302 288 300 310 314 317 324 332 332 333 334 333 333 329 343 332 337
83 86 103 130 142 150 111 92 76 78 19 125 197 306 281 276 278 255 265 271 273 285 284 285 283 283 287 292 284 297 291 305 308 313 327 324 327 330 331 336 339 346 342 341
98 112 126 136 128 162 186 235 232 246 245 263 242 268 281 293 294 283 286 290 288 284 285 283 285 282 281 282 278 279 286 295 289 305 313 323 321 326 330 338 336 341 340 336
103 66 135 174 214 251 263 281 273 258 270 271 271 273 271 271 284 276 279 276 279 280 284 287 285 281 285 285 275 280 281 271 277 295 304 313 323 327 334 336 334 333 338 344
224 20 341 294 273 273 289 316 338 290 297 285 287 276 279 275 286 284 283 284 286 283 292 295 297 294 284 279 277 277 281 273 272 275 301 313 325 327 333 330 330 334 340 342
331 332 337 336 328 322 313 326 257 273 295 278 301 293 282 274 280 286 294 299 300 296 303 309 308 304 298 306 283 292 283 266 279 272 307 315 323 328 328 327 334 339 340 338
310 312 299 298 266 331 12 212 288 282 296 293 314 314 314 301 302 307 295 312 310 301 313 325 324 329 320 312 299 287 302 280 258 278 314 320 330 330 329 335 337 334 335 336
291 283 278 280 284 330 25 313 299 301 345 292 300 309 302 308 305 310 305 322 308 316 320 324 333 330 318 317 319 294 296 288 307 333 332 335 332 332 335 338 338 335 336 337
263 251 229 282 274 267 206 305 303 290 295 304 296 328 304 297 337 337 328 327 324 335 348 336 324 330 332 332 342 325 336 334 19 355 329 331 334 338 334 335 336 336 338 337
296 267 270 310 315 265 321 304 280 304 293 310 326 337 352 356 349 338 332 355 359 359 352 343 336 343 330 316 335 50 50 46 6 341 343 340 337 337 332 337 338 337 337 336
215 259 287 292 300 298 301 312 334 329 297 329 350 333 347 354 346 343 1 354 353 351 345 331 336 334 341 352 186 296 67 12 349 347 342 338 341 337 336 335 341 337 334 334
228 234 265 286 296 295 305 328 314 324 309 342 340 309 324 5 354 358 344 333 344 340 358 344 350 358 358 347 45 55 348 335 343 344 334 343 334 338 337 334 337 335 332 332
240 272 293 286 306 294 300 296 299 306 233 318 54 256 303 344 356 352 349 338 351 359 359 358 358 359 348 351 83 329 317 305 317 322 327 336 328 329 340 338 333 333 334 337
253 279 289 300 290 270 273 273 305 300 273 276 259 315 255 309 353 325 335 346 333 2 336 311 328 338 353 344 333 323 316 314 309 309 306 319 317 323 327 337 338 335 333 330
304 288 307 270 274 285 312 331 339 333 344 321 117 15 324 306 337 332 3 327 352 356 332 317 319 325 330 329 327 318 325 321 317 308 314 314 309 320 327 336 337 334 329 325
290 289 188 279 282 252 336 326 325 324 320 328 330 321 336 326 320 300 320 312 337 356 351 344 340 332 334 323 328 324 325 324 322 320 314 316 311 321 326 329 334 335 326 318